Showing default

INTELSAT 30, 40271

Orbit data source: Space-Track

INTELSAT 30, 40271 is an American payload satellite in GEO that was launched on Thu, 16 Oct 2014 UTC via an ARIANE 5ECA launch vehicle from the French Guiana (FRGUI). Payload-class satellites include a variety of spacecraft equipped with specific instruments for various scientific and technological missions. These include communications satellites like Starlink; space stations such as the ISS; scientific satellites like the Hubble; Earth observation satellites from companies like Planet Labs, Umbra, and HawkEye 360; GPS; miniature CubeSats for education and research; and military/defense satellites.

Loading next visibility...
Identifier
40271, 2014-062A
Orbit
GEO
Country
Flag of UnknownUnknown / ITSO
Related business
Manufacturer
SS/Loral (MDA)
Mission
Operational Commercial Communications
Bus & Motor
LS-1300-O, R-4D
Mass
6,320 kg wet, 3,000 kg dry
Launch date (UTC)
2014-10-16 (11 years ago)
Launch vehicle
ARIANE 5ECA
Launch site
French Guiana (FRGUI)
Object type
Payload
Rocket body
Debris
Shape & HBR
Box + 2 Pan, 16.2 m
Radar Cross Section
55.801 m², Large (>1 m²)

Expand to show TLE details & history
Last TLE update: 22 hours ago

TLE from 22 hours ago
0 INTELSAT 30
1 40271U 14062A   26012.30084904 -.00000134  00000-0  00000-0 0  9995
2 40271   0.0128  44.4467 0001404  54.6516  25.9436  1.00274112  5239
Epoch: 2026-01-12T07:13Z
TLE epoch observation values (Epoch: 2026-01-12T07:13:13.357Z)
Latitude
0.032°
Longitude
-95.04293°
Altitude
35,780.083 km
Speed
3.075 km/s
True Right ascension
08h 20m 14s
True Declination
0° 01' 55"
Sunlit
Object was in daylight at epoch
Visualization orbit readout
Latitude
Unknown
Longitude
Unknown
Altitude
Unknown
Speed
Unknown
Apparent Right ascension
Unknown
Apparent Declination
Unknown
Sunlit
N/A
Visualization observer readout
Local Sidereal Time
06:11:35
Azimuth
Unknown
Elevation
Unknown
Doppler factor
Unknown
Orbital elements
Apogee altitude
35,792.933 km
Perigee altitude
35,781.093 km
Semi-major axis
42,165.15 km
Eccentricity
0.00014
Inclination
0.0128°
RAAN
44.4467°
Arg. of periapsis
54.6516°
True anomaly
25.95064°
Mean anomaly
25.9436°
Eccentric anomaly
25.94712°
Mean motion
0.25068 °/min
Orbital period
1,436.12 mins
BSTAR
0
Loading maneuver chart data...
Computing Atmospheric mass density...
Loading historical data...
Loading historical data...
Loading historical data...
Loading historical data...
Loading historical data...
Loading historical data...
Loading historical data...
Other satellites on launch #62 in the year 2014 (2014-10-16 UTC)

Documentation

Showing up to 5 results
|